Theta_e
321 324 335 340 347 349 356 353 346 350 349 347 346 345 354 347 347 360 345 346 349 348 340 345 342 343 343 344 344 340 339 339 340 339 337 334 332 332 335 338 342 345 346 347 348 348 347 346 345
327 334 336 335 342 352 355 347 348 346 346 345 346 346 355 355 348 345 342 345 346 349 348 349 345 344 344 343 338 342 342 342 338 336 335 337 340 341 342 342 344 346 346 346 345 343 340 338 337
324 333 333 335 340 351 352 346 346 344 344 347 345 348 353 355 348 344 343 343 345 350 350 347 347 344 341 341 342 339 337 338 342 344 344 345 345 344 345 346 345 345 346 347 346 344 342 340 341
326 331 331 334 335 345 348 348 346 342 342 344 349 353 351 351 348 344 343 342 344 347 350 347 344 340 343 340 338 340 343 344 345 345 344 347 343 342 342 342 341 340 339 339 339 339 338 337 338
328 331 333 335 336 341 342 349 345 342 344 342 349 352 353 349 346 343 342 341 345 347 347 344 342 342 342 342 343 345 344 343 340 338 337 337 337 337 337 337 337 337 336 336 336 335 335 335 335
331 330 331 333 339 341 342 342 342 343 342 342 348 350 350 346 345 343 339 340 343 342 344 346 342 341 342 343 342 340 338 336 334 332 331 329 328 329 327 330 329 331 331 331 332 332 332 332 333
330 329 330 332 337 337 336 340 342 342 343 345 347 349 346 346 345 339 338 340 342 343 345 344 345 343 342 340 337 335 334 331 328 325 325 326 323 326 323 320 316 315 314 315 316 318 318 321 327
328 328 330 331 333 339 337 339 343 341 345 341 348 350 346 344 340 337 339 339 340 341 340 343 344 344 342 338 336 335 332 330 327 323 323 324 328 324 325 322 320 320 319 320 321 320 320 319 320
327 327 328 329 332 339 338 339 343 341 343 341 343 346 341 338 336 337 339 338 339 339 341 343 343 345 343 339 336 335 334 332 330 328 325 326 326 324 323 322 321 321 321 321 322 322 321 323 324
326 327 328 329 332 335 336 335 342 341 342 345 347 345 338 337 336 338 338 338 338 340 343 344 347 345 343 341 340 339 336 332 328 326 326 325 325 324 323 323 322 322 322 323 322 322 324 323 322
325 326 328 330 331 332 334 334 343 343 341 345 347 345 338 336 338 338 338 338 338 347 349 349 347 345 344 343 342 339 336 332 327 325 325 324 325 323 323 323 323 322 322 322 322 323 323 322 321
323 325 327 328 329 332 331 333 333 340 344 341 341 341 338 337 338 339 339 340 340 345 350 349 348 348 346 343 342 339 334 330 327 326 324 323 324 322 323 323 322 322 322 321 321 321 321 321 322
322 324 325 327 328 329 330 331 333 333 341 337 343 342 338 337 338 338 338 341 341 345 349 349 348 347 346 343 340 337 333 329 326 325 324 322 323 322 324 322 321 321 320 320 321 320 321 321 323
323 323 324 326 328 328 327 330 333 332 342 339 342 345 340 338 339 339 339 341 343 344 349 349 348 348 345 342 339 335 331 326 326 326 323 323 323 324 323 321 320 319 319 319 320 320 321 321 323
322 322 323 324 326 326 327 328 332 332 332 343 349 347 344 341 340 341 341 343 344 346 348 348 348 345 342 339 336 332 327 325 324 324 322 322 323 323 321 321 319 318 317 319 319 321 320 321 321
321 322 321 324 325 326 326 327 330 332 332 344 345 346 346 343 341 344 345 345 347 349 349 346 343 341 340 335 333 330 326 324 323 322 322 322 322 322 321 319 317 316 318 319 318 320 320 319 319
323 321 322 323 325 326 326 327 329 330 333 335 347 349 347 346 346 346 346 350 349 346 344 342 341 340 336 333 331 328 324 324 322 321 322 322 321 321 321 317 315 317 318 318 319 318 319 320 320
323 322 322 323 324 325 326 327 329 329 330 332 338 345 346 349 348 347 351 349 346 344 341 339 336 335 334 332 329 326 324 323 321 321 321 321 320 319 318 315 315 315 316 316 316 319 317 318 318
323 324 325 324 324 327 327 329 327 328 333 335 336 344 347 349 349 350 349 347 345 343 340 336 337 335 332 330 327 325 325 322 321 321 321 319 318 318 316 314 314 316 314 314 314 314 316 317 315
323 323 324 324 325 325 326 330 328 329 334 337 337 338 345 350 355 353 348 346 343 339 337 336 335 333 332 328 327 326 324 322 321 321 320 318 317 317 315 315 314 313 314 312 313 314 311 315 313
321 321 322 322 324 325 325 329 332 331 332 337 336 338 343 352 356 353 349 346 342 339 338 336 336 333 330 327 326 323 321 319 321 321 319 316 316 315 315 315 314 313 313 314 312 312 314 312 310
323 323 322 322 323 324 327 327 329 331 333 339 338 338 337 346 354 354 350 346 343 341 337 335 334 332 329 326 324 323 321 322 322 320 318 316 315 314 315 315 314 314 313 313 313 312 312 309 309
323 326 325 325 324 323 323 324 327 331 332 333 334 336 336 336 350 354 351 346 343 339 337 336 333 330 328 325 324 322 325 321 319 319 318 316 315 314 314 315 315 315 313 313 312 312 311 309 309
325 325 326 326 326 326 326 325 325 327 332 333 333 332 334 335 339 354 351 345 343 338 337 334 332 329 327 325 326 323 324 321 320 319 318 317 315 314 314 314 314 314 315 313 312 313 311 309 309
325 326 327 328 329 328 330 327 328 328 328 330 332 334 334 337 341 351 352 346 342 338 336 333 330 329 327 326 325 323 322 321 320 319 318 316 315 315 314 314 314 313 314 312 313 311 311 309 309
327 328 329 331 331 330 330 330 330 331 328 328 329 329 341 338 337 334 349 345 341 337 335 331 330 329 326 325 323 323 322 322 321 318 318 315 315 316 315 314 314 312 311 312 312 309 310 309 309
326 328 329 330 329 328 327 332 332 332 329 330 328 329 335 336 332 333 349 343 340 337 334 332 330 328 326 324 323 323 321 321 320 319 316 317 315 315 315 314 313 311 309 311 312 309 309 309 309
326 326 328 330 333 333 328 329 333 334 333 332 331 337 340 341 343 340 345 343 341 335 335 332 330 327 325 324 323 323 321 320 319 318 315 314 313 315 315 313 311 310 307 310 311 311 309 310 309
329 335 334 332 332 336 334 333 334 332 333 332 332 336 338 334 331 329 342 341 339 336 335 333 330 327 325 324 323 322 321 320 319 317 316 315 315 314 314 313 311 310 307 309 311 311 309 309 310
324 325 325 324 331 339 338 336 332 332 330 331 329 332 332 330 328 331 336 341 339 336 335 332 329 326 325 323 323 322 321 319 318 316 315 314 314 314 313 313 310 309 307 310 312 312 310 310 310
Wind_Speed
13 11 9 10 7 7 9 11 15 6 11 10 11 12 24 14 11 5 9 26 25 21 20 17 16 14 13 11 9 8 9 8 8 7 7 8 8 9 9 9 9 9 9 9 9 9 9 9 9
12 16 20 11 12 11 3 10 28 9 13 9 5 11 21 18 17 15 16 21 21 20 19 16 16 15 13 10 10 10 9 8 7 8 8 9 9 9 9 9 10 10 11 11 10 9 9 10 10
13 14 9 8 15 4 3 17 16 7 6 5 7 16 10 9 11 11 21 20 21 26 21 17 16 14 13 12 10 8 9 9 9 9 9 8 7 7 7 7 7 8 11 11 9 8 8 8 9
9 11 8 11 20 8 15 21 23 9 5 3 19 15 12 16 14 21 20 21 22 21 19 18 15 15 14 11 11 11 11 10 10 9 7 10 7 7 6 7 8 9 10 10 10 10 10 10 10
19 9 12 18 24 6 8 36 23 9 6 8 19 19 18 22 24 22 21 18 27 22 19 18 18 15 15 14 12 13 11 10 10 9 9 8 8 7 7 8 8 9 9 9 10 10 11 11 11
11 12 14 16 12 6 14 10 11 8 15 12 17 18 14 25 23 22 20 21 23 22 20 19 16 15 16 15 13 13 11 10 9 9 9 11 10 10 11 10 10 10 10 11 11 12 12 13 13
14 13 19 22 4 6 9 4 8 11 2 16 20 15 13 18 20 21 20 22 28 23 21 18 17 16 15 14 13 11 11 10 11 11 11 11 13 11 12 13 18 15 14 13 13 15 16 16 15
12 14 22 19 12 3 8 5 11 7 16 10 23 9 18 18 22 20 21 21 24 21 20 20 18 16 13 14 11 11 11 12 14 13 11 11 8 12 8 12 19 18 17 15 15 18 19 16 15
18 13 14 22 20 15 20 9 8 4 11 6 10 23 24 26 24 23 21 21 22 25 25 24 22 18 18 13 11 11 11 12 12 9 9 9 6 8 9 14 17 15 16 17 16 17 18 19 19
16 13 20 22 11 8 6 4 13 7 9 12 19 23 28 27 24 23 21 20 21 23 26 30 25 18 17 14 10 9 8 6 8 9 10 8 8 10 11 12 14 16 14 18 19 18 15 17 18
19 17 21 23 17 12 16 4 11 14 15 12 14 20 22 24 21 21 21 21 20 33 30 26 25 19 13 11 10 10 8 6 7 7 10 7 9 10 11 12 13 15 16 17 16 16 17 16 15
20 20 21 23 22 7 11 2 6 4 7 26 10 17 21 20 17 18 17 19 20 21 29 23 21 16 12 9 6 7 7 6 7 8 9 8 11 10 12 13 14 14 15 16 16 17 15 14 16
18 18 19 20 19 4 12 13 5 8 24 30 20 17 20 18 19 21 21 22 19 20 23 18 17 15 11 9 8 8 8 7 7 7 10 11 11 11 9 11 13 13 14 14 14 15 14 14 15
15 17 20 20 15 13 11 15 3 10 25 36 30 23 20 19 19 21 20 21 19 19 18 16 14 14 11 10 9 8 7 9 7 6 10 10 10 11 11 11 13 11 12 12 12 14 12 14 17
17 17 11 17 16 16 9 14 14 13 13 14 23 20 21 19 22 22 20 19 19 21 17 18 16 15 11 8 8 7 8 8 9 8 10 11 11 8 12 11 11 10 12 11 13 14 11 13 13
13 15 14 18 18 16 14 15 16 15 15 18 18 19 18 21 20 24 23 22 20 22 22 19 14 12 12 11 12 8 6 8 11 8 8 9 8 9 7 11 10 13 10 12 13 14 14 10 6
12 12 19 18 19 17 12 17 16 17 19 15 27 31 17 12 17 24 23 23 24 25 23 15 16 15 14 12 10 9 8 8 12 9 7 6 6 6 7 9 10 12 15 12 14 14 11 14 17
10 18 13 15 15 14 13 15 14 20 19 15 8 14 13 16 16 25 27 27 25 21 19 17 17 16 15 13 12 11 8 9 12 9 6 5 5 7 10 9 9 10 13 15 16 13 10 12 15
10 15 14 8 8 3 8 11 16 15 8 7 10 10 10 13 15 27 27 24 22 21 19 19 19 20 18 16 16 13 11 9 10 7 6 5 5 6 7 9 7 10 12 13 14 18 14 8 14
10 14 14 15 7 2 10 14 14 14 13 12 12 12 13 19 22 20 22 21 23 23 21 21 19 20 17 17 11 12 11 11 12 9 7 6 5 7 7 9 10 13 12 17 15 18 18 11 13
12 13 14 14 14 10 10 16 16 13 15 15 13 12 15 20 20 21 23 25 25 25 24 22 22 23 20 16 14 13 12 11 11 8 11 6 6 6 8 8 9 11 13 13 14 16 17 16 16
11 14 15 12 13 10 13 11 15 13 14 17 17 16 15 17 22 23 23 29 31 26 23 23 24 23 19 20 16 15 17 14 13 15 11 8 6 7 7 7 8 9 10 13 13 15 19 16 16
11 8 8 10 11 14 17 11 15 9 18 20 18 19 20 18 22 24 23 29 33 29 28 26 25 24 21 22 18 16 8 13 12 12 11 11 8 6 5 5 5 6 7 8 10 10 14 14 16
12 9 9 12 12 12 17 15 16 15 11 9 9 11 19 20 17 26 30 34 30 29 26 26 25 25 23 21 17 17 14 14 15 13 11 11 11 8 4 3 4 5 4 6 7 7 11 12 13
11 9 9 11 11 14 10 16 13 14 9 12 12 19 14 15 22 2 21 24 29 29 27 25 25 23 23 20 17 13 16 12 15 14 10 11 11 13 8 3 2 5 2 4 4 7 7 10 12
10 13 9 15 13 8 15 8 2 7 4 6 9 7 12 12 16 15 18 26 28 29 26 25 24 24 23 21 19 17 17 14 13 14 10 8 7 13 9 5 3 1 2 2 3 5 7 5 3
14 12 13 11 17 13 13 3 11 10 5 13 9 10 2 9 14 28 29 32 31 29 28 27 27 24 24 22 21 20 20 16 15 11 9 4 6 7 8 6 3 0 2 1 2 4 4 1 2
14 14 10 7 8 13 14 7 11 14 13 19 24 16 19 14 24 19 2 13 24 30 27 27 26 26 25 24 22 21 19 16 15 11 12 10 8 8 9 6 3 2 2 3 4 4 5 1 3
5 4 11 4 5 7 11 7 16 20 14 12 22 20 14 15 16 20 8 19 23 26 27 28 26 24 24 24 22 22 19 17 14 12 11 11 8 7 7 7 4 4 2 3 2 1 3 2 1
16 7 11 7 5 3 5 10 6 11 11 16 17 21 10 9 6 6 14 23 26 25 25 28 26 25 23 23 23 23 20 19 17 15 13 11 10 9 8 7 4 2 2 4 5 6 3 3 5
Wind_Direction
266 258 228 248 253 94 154 284 331 135 81 55 49 44 76 112 137 171 180 113 110 113 113 121 118 115 111 115 117 106 97 88 81 76 65 58 50 45 41 36 32 25 19 13 5 357 353 346 341
264 260 241 265 266 261 224 241 271 58 87 106 80 103 78 69 98 136 132 112 110 118 122 123 126 126 124 115 103 94 93 89 80 72 68 64 56 49 41 38 33 26 19 14 11 360 347 340 336
267 269 277 244 250 113 91 296 256 86 113 129 109 41 68 94 95 115 125 120 122 114 121 127 132 125 115 108 109 103 91 80 73 70 66 66 60 53 47 44 36 26 27 23 12 358 349 345 339
269 245 236 263 268 123 133 261 247 122 78 343 109 83 96 119 126 129 131 127 126 119 119 129 127 120 120 116 96 94 100 96 90 87 79 68 57 48 39 25 17 11 6 360 357 349 344 341 341
247 267 266 258 270 110 112 193 203 89 158 87 95 98 100 112 123 132 130 134 125 117 122 123 124 126 118 114 115 112 114 97 84 67 54 41 34 27 20 11 3 357 355 348 342 339 335 332 331
255 241 263 270 55 172 175 119 124 131 104 112 104 112 107 120 138 142 143 147 120 123 126 126 129 125 124 119 114 106 97 81 69 58 52 47 36 32 22 21 9 0 354 344 338 334 327 322 318
253 264 257 273 145 276 281 133 148 120 144 133 134 124 131 149 148 147 151 135 123 130 131 131 127 130 126 118 110 101 87 73 59 57 60 53 41 28 23 20 13 4 358 349 345 345 336 325 317
241 264 278 283 264 119 317 202 119 170 74 94 133 131 153 147 153 151 140 141 129 132 138 138 136 130 126 119 108 90 73 64 61 57 55 34 32 7 2 6 1 9 10 3 7 1 357 354 337
246 254 268 267 276 146 217 198 141 137 115 165 80 139 145 150 150 153 149 139 148 149 151 146 144 142 140 130 116 93 67 58 47 39 32 57 32 19 9 344 354 2 360 351 -0 352 352 351 344
237 251 252 269 314 158 105 256 147 155 162 126 106 118 139 151 159 154 154 152 155 152 137 137 142 142 151 143 117 131 115 94 72 54 36 31 16 8 356 358 354 4 0 12 355 350 358 1 348
241 243 264 269 310 289 120 239 147 221 185 47 125 138 151 158 164 160 156 159 153 116 124 135 141 127 164 146 169 131 104 92 69 43 50 19 14 7 4 6 8 9 5 4 358 0 4 350 341
235 246 254 278 294 310 290 331 201 269 141 116 267 156 156 164 165 161 150 145 142 132 125 132 136 140 145 147 127 127 114 106 82 54 41 26 18 11 11 12 14 13 8 4 358 5 353 344 343
237 249 254 263 281 294 304 287 245 238 128 124 220 201 160 168 169 158 164 143 161 128 122 129 140 149 151 143 133 118 120 112 95 70 32 25 23 19 11 17 16 15 9 3 359 359 348 7 15
245 239 254 263 269 266 248 269 234 259 139 165 168 180 159 172 173 155 164 158 156 146 133 147 160 165 165 151 141 131 122 108 91 63 44 28 29 19 13 20 16 11 6 1 5 351 23 14 37
270 273 261 243 263 266 232 245 249 238 228 169 154 157 166 178 175 158 168 156 167 151 158 150 150 153 138 136 134 133 132 124 95 68 46 35 22 16 10 27 18 0 1 5 14 12 23 26 35
251 248 259 253 232 244 235 252 233 242 236 186 188 156 171 175 172 158 162 161 155 142 146 135 140 154 150 158 133 138 130 123 98 81 47 44 26 11 31 29 14 6 13 22 17 18 359 19 24
230 247 233 249 235 215 199 248 262 263 217 218 128 227 180 173 154 149 155 138 122 138 138 148 155 158 160 151 138 151 140 115 94 78 62 50 32 12 27 40 20 25 29 26 16 15 1 355 359
231 213 226 260 244 179 224 235 242 265 258 199 203 182 167 158 156 145 122 128 133 139 146 162 162 162 159 157 153 148 151 110 92 85 74 62 47 28 25 50 30 47 33 26 9 2 3 30 1
334 301 312 256 217 297 209 252 251 247 167 195 214 190 171 163 137 142 130 141 146 145 151 173 167 165 164 170 170 165 148 116 107 101 92 77 59 46 36 48 32 49 54 33 16 5 356 36 7
310 280 281 297 311 52 288 266 244 238 204 207 234 235 217 152 126 138 146 158 152 151 172 178 172 171 179 179 175 160 133 117 124 118 114 90 70 61 61 57 48 39 57 39 22 15 4 11 43
268 268 277 265 286 182 251 267 263 232 217 182 207 228 206 170 172 157 162 163 157 171 180 178 176 178 180 172 151 133 135 129 139 152 134 101 92 81 77 62 52 52 49 36 35 19 12 -0 20
259 253 234 275 288 268 221 255 248 226 227 188 195 204 229 197 181 170 167 165 167 174 176 181 179 182 172 165 157 160 159 173 157 137 119 122 109 97 90 73 58 49 63 40 37 21 24 23 15
253 355 334 288 270 265 268 266 266 236 216 219 211 200 209 220 187 160 173 168 167 173 181 180 176 179 174 164 168 176 163 128 131 129 129 127 125 121 106 83 69 41 54 56 42 41 27 25 19
299 310 258 265 260 258 248 254 268 261 237 199 227 230 215 205 204 159 173 164 174 172 171 174 171 176 178 169 171 171 154 153 145 146 164 163 150 140 118 98 78 47 54 46 50 56 41 33 23
219 249 264 253 229 239 324 242 235 253 253 205 194 227 239 103 79 205 161 172 170 165 174 170 172 178 173 169 170 162 152 155 151 162 186 159 164 160 134 126 60 56 59 66 25 47 77 49 33
328 244 259 280 301 337 284 265 298 281 265 264 263 282 119 103 135 190 198 175 167 164 173 170 176 177 174 169 164 160 159 158 164 177 166 181 173 133 137 139 151 37 355 66 29 74 63 65 42
293 263 341 309 276 274 269 173 274 239 332 347 285 292 106 101 191 178 187 165 167 168 173 173 180 179 175 166 161 161 164 166 166 171 155 143 126 149 162 165 140 300 305 231 234 103 96 88 353
255 293 293 284 338 302 294 320 50 5 40 10 341 9 64 73 65 43 297 139 167 164 176 172 184 178 172 165 163 163 169 162 150 157 171 169 183 106 144 168 185 211 245 213 250 173 141 160 31
323 9 334 308 298 306 301 338 35 24 13 30 27 42 58 68 97 110 212 211 172 172 180 173 177 175 174 167 168 166 165 160 155 163 175 172 173 183 178 192 197 205 218 210 239 254 181 235 306
300 265 270 291 276 113 144 280 248 90 306 42 18 3 74 92 125 163 184 200 168 183 183 170 178 171 180 173 170 166 161 162 164 173 179 178 180 187 197 196 211 203 198 187 218 252 13 323 311